Location: Newark
(14.9306°N, 3.4333°E)
Time: 21:13:36
(UTC+00:00)

Envisat - Visible Passes

Search period start: 18 October 2019 00:00
Search period end: 28 October 2019 00:00
Orbit: 764 x 766 km, 98.1° (Epoch: 18 October)

Date Brightness Start Highest point End Pass type
(mag) Time Alt. Az. Time Alt. Az. Time Alt. Az.
18 Oct 4.2 18:36:58 10° S 18:41:46 43° W 18:46:34 10° NNW visible
19 Oct 2.9 18:00:03 10° SSE 18:05:04 67° ENE 18:10:06 10° N visible
20 Oct 5.5 19:03:29 10° SSW 19:07:16 21° W 19:11:04 10° NW visible
21 Oct 3.6 18:25:32 10° S 18:30:31 59° WSW 18:35:30 10° NNW visible
22 Oct 3.2 17:48:58 10° SSE 17:53:51 49° ENE 17:58:43 10° N visible
23 Oct 5.0 18:51:41 10° SSW 18:56:00 28° W 19:00:20 10° NW visible
24 Oct 3.1 18:14:12 10° S 18:19:16 80° WSW 18:24:21 10° NNW visible
25 Oct 3.5 17:38:01 10° SE 17:42:38 36° ENE 17:47:15 10° N visible
25 Oct 6.0 19:18:59 10° SW 19:21:31 14° W 19:24:04 10° WNW visible
26 Oct 4.4 18:40:03 10° SSW 18:44:44 38° W 18:49:26 10° NNW visible
27 Oct 2.9 18:02:58 10° SSE 18:08:02 76° ENE 18:13:05 10° N visible
